Other Public Products
Issued by NWS Charleston, SC

Current Version | Previous Version | Graphics & Text | Print | Product List | Glossary On
Versions: 1 2 3 4 5 6 7 8 9 10 11 12 13 14 15 16 17 18 19 20 21 22 23 24 25 26 27 28 29 30 31 32 33 34 35 36 37 38 39 40 41 42 43 44 45 46 47 48 49 50
000 FPUS82 KCHS 230012 OPUCHS TEST...KCHS/KSAV Gateway Observations...TEST National Weather Service Charleston SC 800 PM EDT WED MAR 22 2017 NOTE: "fair" indicates few or no clouds below 12,000 feet with no significant weather and/or obstructions to visibility. SCZ050-WAZ558-NCZ071-TXZ119-213-PAZ071-DCZ001-FLZ074-172-MI076- NYZ176-178-MAZ016-IL014-TNZ027-NJZ106-GAZ044-MD014-230100- ...Gateway Observations for Charleston International... CITY SKY/WX TMP DP RH WIND PRES REMARKS Chas Airport PTCLDY 61 50 67 E10G18 30.20R 6HR MIN TEMP: 61; 6HR MAX TEMP: 77; Seattle LGT RAIN 48 45 89 S18G26 29.93R 6HR MIN TEMP: 48; 6HR MAX TEMP: 55; 6HR PCP: 0.02; Charlotte CLOUDY 56 19 23 NE6 30.26R 6HR MIN TEMP: 54; 6HR MAX TEMP: 62; Dallas DFW PTCLDY 80 62 54 S17 30.01R 6HR MIN TEMP: 80; 6HR MAX TEMP: 86; Dallas Love PTCLDY 79 60 52 S18 30.03S 6HR MIN TEMP: 78; 6HR MAX TEMP: 84; Philladelphia CLEAR 34 1 24 N15 30.40R WCI 24 6HR MIN TEMP: 34; 6HR MAX TEMP: 41; Wash National CLEAR 43 5 20 N16 30.39R 6HR MIN TEMP: 43; 6HR MAX TEMP: 50; Baltimore PTCLDY 40 1 19 N8 30.38R WCI 34 6HR MIN TEMP: 40; 6HR MAX TEMP: 48; Miami PTCLDY 77 57 50 S9 30.07R 6HR MIN TEMP: 77; 6HR MAX TEMP: 82; Detroit PTCLDY 31 16 54 S9 30.56R WCI 23 6HR MIN TEMP: 31; 6HR MAX TEMP: 39; Newark CLEAR 30 -6 21 NW21G30 30.35R WCI 17 6HR MIN TEMP: 30; 6HR MAX TEMP: 37; Laguardia CLEAR 31 -2 24 N23G30 30.34R WCI 18 6HR MIN TEMP: 31; 6HR MAX TEMP: 36; J F K CLEAR 30 -8 19 N21G31 30.34R WCI 17 6HR MIN TEMP: 30; 6HR MAX TEMP: 37; Boston Logan CLEAR 23 -7 26 NW26G35 30.19R WCI 6 6HR MIN TEMP: 23; 6HR MAX TEMP: 32; Ft. Lauderdale CLEAR 75 58 55 S7 30.06R 6HR MIN TEMP: 75; 6HR MAX TEMP: 83; Chicago O`Hare CLOUDY 31 17 56 NE9 30.50F WCI 23 6HR MIN TEMP: 31; 6HR MAX TEMP: 37; Chicago Midway MOCLDY 31 18 58 N8 30.51F WCI 23 6HR MIN TEMP: 31; 6HR MAX TEMP: 35; Houston Bush PTCLDY 82 55 39 S7 30.08R 6HR MIN TEMP: 79; 6HR MAX TEMP: 85; Houston Hobby PTCLDY 76 65 68 SE14 30.09R 6HR MIN TEMP: 76; 6HR MAX TEMP: 85; Nashville MOCLDY 52 19 27 N12 30.33R 6HR MIN TEMP: 52; 6HR MAX TEMP: 59; Atlanta CLOUDY 61 37 41 NW9 30.19R 6HR MIN TEMP: 59; 6HR MAX TEMP: 68; 6HR PCP: TRACE; $$ GAZ044-118-TXZ119-213-NCZ071-DCZ001-MDZ014-506-PAZ021-071-NJZ106- NYZ176-178-MAZ106-OHZ011-021-055-MIZ076-KYZ091-ILZ014-INZ047- MNZ060-ONZ431-230100- ...Gateway Observations for Savannah International... CITY SKY/WX TMP DP RH WIND PRES REMARKS Savannah Arpt PTCLDY 64 51 62 E16 30.17R 6HR MIN TEMP: 64; 6HR MAX TEMP: 82; Atlanta CLOUDY 61 37 41 NW9 30.19R 6HR MIN TEMP: 59; 6HR MAX TEMP: 68; 6HR PCP: TRACE; Charlotte CLOUDY 56 19 23 NE6 30.26R 6HR MIN TEMP: 54; 6HR MAX TEMP: 62; Dallas DFW PTCLDY 80 62 54 S17 30.01R 6HR MIN TEMP: 80; 6HR MAX TEMP: 86; Houston Bush PTCLDY 82 55 39 S7 30.08R 6HR MIN TEMP: 79; 6HR MAX TEMP: 85; Wash National CLEAR 43 5 20 N16 30.39R 6HR MIN TEMP: 43; 6HR MAX TEMP: 50; Wash Dulles CLEAR 41 3 20 N9 30.38R 6HR MIN TEMP: 41; 6HR MAX TEMP: 48; Baltimore PTCLDY 40 1 19 N8 30.38R WCI 34 6HR MIN TEMP: 40; 6HR MAX TEMP: 48; Philadelphia CLEAR 34 1 24 N15 30.40R WCI 24 6HR MIN TEMP: 34; 6HR MAX TEMP: 41; Newark CLEAR 30 -6 21 NW21G30 30.35R WCI 17 6HR MIN TEMP: 30; 6HR MAX TEMP: 37; Laguardia CLEAR 31 -2 24 N23G30 30.34R WCI 18 6HR MIN TEMP: 31; 6HR MAX TEMP: 36; J F K CLEAR 30 -8 19 N21G31 30.34R WCI 17 6HR MIN TEMP: 30; 6HR MAX TEMP: 37; Boston CLEAR 23 -7 26 NW26G35 30.19R WCI 6 6HR MIN TEMP: 23; 6HR MAX TEMP: 32; Pittsburg PTCLDY 32 6 33 N10 30.46R WCI 24 6HR MIN TEMP: 32; 6HR MAX TEMP: 38; Akron PTCLDY 27 9 46 N9 30.49S WCI 18 6HR MIN TEMP: 27; 6HR MAX TEMP: 37; Cleveland PTCLDY 28 12 51 N7 30.57F WCI 21 6HR MIN TEMP: 28; 6HR MAX TEMP: 32; Cincinnati PTCLDY 38 18 44 E13 30.44R WCI 30 6HR MIN TEMP: 38; 6HR MAX TEMP: 43; Columbus CLEAR 34 15 46 NE9 30.47S WCI 27 Detroit PTCLDY 31 16 54 S9 30.56R WCI 23 6HR MIN TEMP: 31; 6HR MAX TEMP: 39; Chicago O`Hare CLOUDY 31 17 56 NE9 30.50F WCI 23 6HR MIN TEMP: 31; 6HR MAX TEMP: 37; Minneapolis CLOUDY 38 12 34 S10 30.36F WCI 31 6HR MIN TEMP: 34; 6HR MAX TEMP: 40; Indianapolis PTCLDY 37 18 46 E12 30.44F WCI 29 6HR MIN TEMP: 36; 6HR MAX TEMP: 42; Toronto Canada CLEAR 25 5 42 N9 30.50R WCI 15 $$

USA.gov is the U.S. government's official web portal to all federal, state and local government web resources and services.